Location: Unspecified
(43.4354°N, 0.0000°E)
Time: 09:09:06
(UTC+00:00)

Transit 2A - Pass Details

Date: 19 June 2019
Orbit: 597 x 962 km, 66.7° (Epoch: 24 August)

Event Time Altitude Azimuth Distance (km) Brightness Sun altitude
Rises 03:52:12 0° 283° (WNW) 3,645 9.1 -4.7°
Reaches altitude 10° 03:56:58 10° 314° (NW) 2,678 8.7 -4.1°
Maximum altitude 03:59:04 12° 334° (NNW) 2,541 8.9 -3.8°
Drops below altitude 10° 04:01:08 10° 354° (N) 2,637 9.2 -3.5°
Sets 04:05:43 0° 26° (NNE) 3,509 10.7 -2.8°
